• In Netherlands
  • List of Countries
  • For 7 days
  • Water Temperature
  • Satellite Maps
  • Weather Map
  • Weather Widgets
  • user-avatar
    Login

    Hourly Weather Haradok

    Today, 26 April, Wednesday

    Time Temperature Precipitation Wind Pressure Humidity
    00:00 +6°C° 0.3 mm 7 mps 740 mmHg 88%
    01:00 +6°C° 0.3 mm 7 mps 740 mmHg 91%
    02:00 +7°C° 0 mm 4 mps 739 mmHg 94%
    03:00 +7°C° 0.1 mm 4 mps 740 mmHg 94%
    04:00 +6°C° 0.1 mm 4 mps 740 mmHg 95%
    05:00 +6°C° 0.1 mm 4 mps 740 mmHg 95%
    06:00 +5°C° 1 mm 4 mps 741 mmHg 93%
    07:00 +4°C° 1 mm 4 mps 741 mmHg 91%
    08:00 +4°C° 0 mm 4 mps 741 mmHg 88%
    09:00 +4°C° 1.1 mm 4 mps 742 mmHg 86%
    10:00 +4°C° 1.1 mm 4 mps 742 mmHg 85%
    11:00 +4°C° 1.1 mm 4 mps 743 mmHg 84%
    12:00 +4°C° 0.2 mm 4 mps 743 mmHg 81%
    13:00 +5°C° 0.2 mm 4 mps 744 mmHg 78%
    14:00 +6°C° 0.2 mm 4 mps 744 mmHg 75%
    15:00 +6°C° 0 mm 4 mps 744 mmHg 75%
    16:00 +6°C° 0 mm 4 mps 744 mmHg 74%
    17:00 +7°C° 0 mm 4 mps 745 mmHg 73%
    18:00 +6°C° 0 mm 4 mps 745 mmHg 78%
    19:00 +5°C° 0 mm 3 mps 745 mmHg 83%
    20:00 +4°C° 0 mm 3 mps 745 mmHg 88%
    21:00 +4°C° 0 mm 3 mps 746 mmHg 89%
    22:00 +3°C° 0 mm 3 mps 746 mmHg 91%
    23:00 +4°C° 0 mm 2 mps 746 mmHg 92%

    Tomorrow, 27 April, Thursday

    Time Temperature Precipitation Wind Pressure Humidity
    00:00 +4°C° 0 mm 2 mps 746 mmHg 93%
    01:00 +3°C° 0 mm 2 mps 746 mmHg 93%
    02:00 +3°C° 0 mm 2 mps 746 mmHg 94%
    03:00 +3°C° 0.1 mm 2 mps 746 mmHg 94%
    04:00 +4°C° 0.1 mm 1 mps 746 mmHg 93%
    05:00 +4°C° 0.1 mm 1 mps 746 mmHg 92%
    06:00 +5°C° 0.7 mm 1 mps 746 mmHg 91%
    07:00 +5°C° 0.7 mm 1 mps 746 mmHg 90%
    08:00 +6°C° 0.7 mm 1 mps 746 mmHg 88%
    09:00 +7°C° 0.2 mm 1 mps 746 mmHg 82%
    10:00 +8°C° 0.2 mm 1 mps 746 mmHg 75%
    11:00 +9°C° 0.2 mm 1 mps 746 mmHg 68%
    12:00 +10°C° 0 mm 1 mps 747 mmHg 65%
    13:00 +10°C° 0 mm 1 mps 747 mmHg 62%
    14:00 +11°C° 0 mm 1 mps 747 mmHg 59%
    15:00 +11°C° 0.1 mm 1 mps 747 mmHg 63%
    16:00 +10°C° 0.1 mm 1 mps 747 mmHg 66%
    17:00 +10°C° 0.1 mm 1 mps 747 mmHg 69%
    18:00 +9°C° 0 mm 1 mps 748 mmHg 73%
    19:00 +8°C° 0 mm 1 mps 748 mmHg 76%
    20:00 +7°C° 0 mm 1 mps 748 mmHg 79%
    21:00 +7°C° 0 mm 1 mps 748 mmHg 81%
    22:00 +6°C° 0 mm 1 mps 749 mmHg 82%
    23:00 +5°C° 0 mm 0 mps 749 mmHg 84%

    Day after tomorrow, 28 April, Friday

    Time Temperature Precipitation Wind Pressure Humidity
    00:00 +6°C° 0 mm 1 mps 749 mmHg 84%
    01:00 +6°C° 0 mm 1 mps 749 mmHg 84%
    02:00 +5°C° 0 mm 1 mps 749 mmHg 85%
    03:00 +5°C° 0.1 mm 1 mps 749 mmHg 85%
    04:00 +5°C° 0.1 mm 2 mps 749 mmHg 85%
    05:00 +5°C° 0.1 mm 2 mps 749 mmHg 84%
    06:00 +4°C° 0.6 mm 3 mps 749 mmHg 85%
    07:00 +4°C° 0.6 mm 3 mps 749 mmHg 86%
    08:00 +5°C° 0.6 mm 4 mps 749 mmHg 86%
    09:00 +5°C° 1.1 mm 4 mps 749 mmHg 86%
    10:00 +5°C° 1.1 mm 5 mps 749 mmHg 85%
    11:00 +4°C° 1.1 mm 6 mps 748 mmHg 85%
    12:00 +4°C° 0.7 mm 6 mps 748 mmHg 85%
    13:00 +4°C° 0.7 mm 7 mps 748 mmHg 86%
    14:00 +4°C° 0.7 mm 7 mps 748 mmHg 87%
    15:00 +4°C° 0.3 mm 7 mps 747 mmHg 88%
    16:00 +4°C° 0.3 mm 7 mps 747 mmHg 89%
    17:00 +4°C° 0.3 mm 7 mps 747 mmHg 91%
    18:00 +3°C° 2.2 mm 6 mps 746 mmHg 92%
    19:00 +3°C° 2.2 mm 6 mps 746 mmHg 94%
    20:00 +3°C° 2.2 mm 6 mps 746 mmHg 95%
    21:00 +3°C° 1.9 mm 6 mps 745 mmHg 95%
    22:00 +3°C° 1.9 mm 6 mps 745 mmHg 95%
    23:00 +3°C° 1.9 mm 6 mps 745 mmHg 95%

    29 April, Saturday

    Time Temperature Precipitation Wind Pressure Humidity
    00:00 +3°C° 0.4 mm 5 mps 744 mmHg 96%
    01:00 +3°C° 0.4 mm 5 mps 744 mmHg 96%
    02:00 +3°C° 0.4 mm 5 mps 743 mmHg 97%
    03:00 +5°C° 1 mm 4 mps 743 mmHg 97%
    04:00 +6°C° 1 mm 4 mps 743 mmHg 97%
    05:00 +6°C° 1 mm 4 mps 742 mmHg 97%
    06:00 +8°C° 0.5 mm 4 mps 742 mmHg 95%
    07:00 +9°C° 0.5 mm 5 mps 742 mmHg 92%
    08:00 +10°C° 0.5 mm 5 mps 742 mmHg 90%
    09:00 +12°C° 0.1 mm 5 mps 742 mmHg 87%
    10:00 +14°C° 0.1 mm 5 mps 742 mmHg 84%
    11:00 +15°C° 0.1 mm 6 mps 742 mmHg 82%
    12:00 +15°C° 0.6 mm 5 mps 742 mmHg 82%
    13:00 +15°C° 0.6 mm 5 mps 742 mmHg 83%
    14:00 +15°C° 0.6 mm 5 mps 742 mmHg 84%
    15:00 +15°C° 0.6 mm 4 mps 743 mmHg 86%
    16:00 +15°C° 0.6 mm 4 mps 743 mmHg 88%
    17:00 +14°C° 0.6 mm 4 mps 743 mmHg 90%
    18:00 +14°C° 0 mm 3 mps 743 mmHg 92%
    19:00 +13°C° 0 mm 3 mps 744 mmHg 93%
    20:00 +13°C° 0 mm 2 mps 744 mmHg 95%
    21:00 +12°C° 0.2 mm 3 mps 744 mmHg 95%
    22:00 +12°C° 0.2 mm 3 mps 744 mmHg 96%
    23:00 +12°C° 0.2 mm 3 mps 745 mmHg 97%

    30 April, Sunday

    Time Temperature Precipitation Wind Pressure Humidity
    00:00 +11°C° 1.4 mm 3 mps 745 mmHg 96%
    01:00 +10°C° 1.4 mm 3 mps 745 mmHg 96%
    02:00 +10°C° 1.4 mm 3 mps 746 mmHg 96%
    03:00 +9°C° 0.1 mm 3 mps 746 mmHg 95%
    04:00 +8°C° 0.1 mm 3 mps 747 mmHg 94%
    05:00 +8°C° 0.1 mm 3 mps 748 mmHg 93%
    06:00 +8°C° 0 mm 3 mps 748 mmHg 89%
    07:00 +8°C° 0 mm 3 mps 749 mmHg 85%
    08:00 +8°C° 0 mm 3 mps 750 mmHg 80%
    09:00 +8°C° 0 mm 3 mps 750 mmHg 80%
    10:00 +9°C° 0 mm 2 mps 751 mmHg 80%
    11:00 +9°C° 0 mm 2 mps 751 mmHg 80%
    12:00 +9°C° 0.1 mm 2 mps 751 mmHg 79%
    13:00 +9°C° 0.1 mm 2 mps 752 mmHg 78%
    14:00 +10°C° 0.1 mm 2 mps 752 mmHg 77%
    15:00 +9°C° 0.2 mm 2 mps 752 mmHg 79%
    16:00 +9°C° 0.2 mm 3 mps 753 mmHg 81%
    17:00 +9°C° 0.2 mm 3 mps 753 mmHg 83%
    18:00 +8°C° 0 mm 2 mps 753 mmHg 86%
    19:00 +8°C° 0 mm 2 mps 754 mmHg 89%
    20:00 +7°C° 0 mm 2 mps 754 mmHg 92%
    21:00 +6°C° 0 mm 2 mps 754 mmHg 91%
    22:00 +6°C° 0 mm 2 mps 755 mmHg 91%
    23:00 +6°C° 0 mm 1 mps 755 mmHg 91%

    1 May, Monday

    Time Temperature Precipitation Wind Pressure Humidity
    00:00 +5°C° 0 mm 2 mps 755 mmHg 91%
    01:00 +4°C° 0 mm 2 mps 756 mmHg 90%
    02:00 +4°C° 0 mm 2 mps 756 mmHg 90%
    03:00 +4°C° 0 mm 2 mps 756 mmHg 90%
    04:00 +3°C° 0 mm 2 mps 756 mmHg 90%
    05:00 +3°C° 0 mm 2 mps 757 mmHg 91%
    06:00 +5°C° 0 mm 2 mps 757 mmHg 86%
    07:00 +7°C° 0 mm 2 mps 757 mmHg 80%
    08:00 +8°C° 0 mm 2 mps 757 mmHg 75%
    09:00 +10°C° 0 mm 2 mps 758 mmHg 69%
    10:00 +12°C° 0 mm 2 mps 758 mmHg 64%
    11:00 +13°C° 0 mm 2 mps 758 mmHg 58%
    12:00 +13°C° 0 mm 2 mps 758 mmHg 57%
    13:00 +14°C° 0 mm 2 mps 758 mmHg 56%
    14:00 +14°C° 0 mm 2 mps 758 mmHg 54%
    15:00 +14°C° 0 mm 2 mps 758 mmHg 56%
    16:00 +14°C° 0 mm 2 mps 758 mmHg 59%
    17:00 +14°C° 0 mm 2 mps 757 mmHg 61%
    18:00 +12°C° 0 mm 2 mps 757 mmHg 67%
    19:00 +9°C° 0 mm 2 mps 758 mmHg 74%
    20:00 +8°C° 0 mm 2 mps 758 mmHg 81%
    21:00 +7°C° 0 mm 2 mps 758 mmHg 82%
    22:00 +7°C° 0 mm 2 mps 758 mmHg 83%
    23:00 +6°C° 0 mm 2 mps 758 mmHg 84%
    Show more